Regional Weather Roundup
Issued by NWS

Home | Current Version | Previous Version | Text Only | Print | Product List | Glossary On
Versions: 1 2 3 4 5 6 7 8 9 10 11 12 13 14 15 16 17 18 19 20 21 22 23 24 25 26 27 28 29 30 31 32 33 34 35 36 37 38 39 40 41 42 43 44 45 46 47 48 49 50
000
ASMX46 KSGX 180610
RWRMX

MEXICAN WEATHER ROUNDUP
NATIONAL WEATHER SERVICE SAN DIEGO CA
1000 PM PST WED DEC 17 2014

BAJA CALIFORNIA

CITY           SKY/WX    TMP DP  RH WIND       PRES   REMARKS
ENSENADA NW      N/A     58  32  38 NE9       30.12S
LA PAZ         PTCLDY    59  54  82 CALM      30.11
TIJUANA        PTCLDY    54  43  66 CALM      30.14R

NORTHWESTERN MEXICO

CITY           SKY/WX    TMP DP  RH WIND       PRES   REMARKS
CHIHUAHUA      PTCLDY    52  23  32 NW8       30.16
CULIACAN       CLOUDY    64  59  82 CALM      30.05

NORTHEASTERN MEXICO

CITY           SKY/WX    TMP DP  RH WIND       PRES   REMARKS
MONTERREY      CLOUDY    64  63  94 CALM      30.04S FOG
REYNOSA        PTCLDY    68  64  88 S5        30.02
VICTORIA       CLOUDY    70  64  83 S14       30.02

WESTERN MEXICO

CITY           SKY/WX    TMP DP  RH WIND       PRES   REMARKS
AGUASCALIENTES PTCLDY    55  37  50 S5        30.29
DURANGO        MOCLDY    52  34  50 S6        30.29R
GUADALAJARA    MOCLDY    59  46  63 S3        30.23
MAZATLAN       CLOUDY    57  54  88 NE7       30.00S
PTO. VALLARTA  CLOUDY    73  66  78 NE6       30.01F
ZACATECAS      PTCLDY    54  37  54 S13       30.29F

CENTRAL MEXICO

CITY           SKY/WX    TMP DP  RH WIND       PRES   REMARKS
LEON           PTCLDY    50  45  81 N5        30.35S
MEXICO CITY    PTCLDY    57  46  67 NW6       30.37F
MORELIA        CLEAR     46  43  87 CALM      30.29
PUEBLA         MOCLDY    46  43  87 NW5       30.37F
QUERETARO      PTCLDY    54  43  66 N7        30.35S
S. LUIS POTOSI PTCLDY    52  50  93 CALM      30.26S
TOLUCA         PTCLDY    43  39  87 CALM      30.46S
VERACRUZ       CLOUDY    68  64  88 NW5       30.06F

SOUTHERN MEXICO

CITY           SKY/WX    TMP DP  RH WIND       PRES   REMARKS
ACAPULCO       CLEAR     77  72  83 N6        29.98S
TAPACHULA      CLEAR     75  72  88 CALM      29.96F
TUX. GUTIERREZ CLEAR     61  59  94 SW3       30.10S

YUCATAN PENINSULA

CITY           SKY/WX    TMP DP  RH WIND       PRES   REMARKS
CANCUN         MOCLDY    68  61  77 N2        30.11S
COZUMEL        PTCLDY    59  59 100 CALM      30.11S
MERIDA         CLEAR     66  57  72 E13       30.11F

$$




USA.gov is the U.S. government's official web portal to all federal, state and local government web resources and services.